Regional Weather Roundup
Issued by NWS Boston, MA

Current Version | Previous Version | Text Only | Print | Product List | Glossary Off
Versions: 1 2 3 4 5 6 7 8 9 10 11 12 13 14 15 16 17 18 19 20 21 22 23 24 25 26 27 28 29 30 31 32 33 34 35 36 37 38 39 40 41 42 43 44 45 46 47 48 49 50
434 ASUS41 KBOX 161210 RWRBOX REGIONAL WEATHER ROUNDUP NATIONAL WEATHER SERVICE TAUNTON MA 800 AM EDT WED AUG 16 2017 NOTE: "FAIR" INDICATES FEW OR NO CLOUDS BELOW 12,000 FEET WITH NO SIGNIFICANT WEATHER AND/OR OBSTRUCTIONS TO VISIBILITY. MAZALL-161300- EASTERN MASSACHUSETTS CITY SKY/WX TMP DP RH WIND PRES REMARKS BOSTON MOSUNNY 73 66 78 NW7 29.92R 6HR MIN TEMP: 66; 6HR MAX TEMP: 73; BEVERLY SUNNY 72 66 81 NW9 29.91R LAWRENCE SUNNY 72 65 78 VRB3 29.94R BEDFORD MOSUNNY 70 64 81 W5 29.91R BLUE HILL N/A 68 65 90 NW9 29.92R NORWOOD SUNNY 73 68 84 CALM 29.91R MARSHFIELD SUNNY 72 68 88 VRB7 29.90S PLYMOUTH CLOUDY 68 65 90 W9 29.92R TAUNTON PTSUNNY 69 66 90 W3 29.91S FOG NEW BEDFORD SUNNY 71 67 87 VRB5 29.90S $$ MAZALL-161300- CAPE COD AND THE ISLANDS CITY SKY/WX TMP DP RH WIND PRES REMARKS FALMOUTH SUNNY 70 68 94 NW10 29.91S HYANNIS SUNNY 73 68 84 NW8 29.88S CHATHAM SUNNY 72 70 93 VRB3 29.90R PROVINCETOWN SUNNY 70 67 90 W12 29.90S NANTUCKET CLOUDY 70 69 97 NW5 29.90S MARTHAS VNYRD SUNNY 72 68 87 NW9 29.90R $$ MAZALL-161300- CENTRAL AND WESTERN MASSACHUSETTS CITY SKY/WX TMP DP RH WIND PRES REMARKS WORCESTER PTSUNNY 66 62 87 NW6 29.96S 6HR MIN TEMP: 64; 6HR MAX TEMP: 67; FITCHBURG SUNNY 72 65 78 W7 29.94S ORANGE CLOUDY 64 64 100 E3 29.96R SPRINGFIELD MOSUNNY 69 64 82 N3 29.93F WESTFIELD SUNNY 70 65 84 W5 29.94F NORTH ADAMS CLOUDY 63 62 97 CALM 29.98R FOG PITTSFIELD PTSUNNY 64 61 90 NW8 29.98S $$ RIZALL-161300- RHODE ISLAND CITY SKY/WX TMP DP RH WIND PRES REMARKS PROVIDENCE MOSUNNY 72 68 87 NW9 29.93R 6HR MIN TEMP: 67; 6HR MAX TEMP: 72; NEWPORT MOSUNNY 70 69 97 NW7 29.92R BLOCK ISLAND SUNNY 71 68 90 NW9 29.93R WESTERLY SUNNY 73 69 87 NW3 29.93R $$ CTZALL-161300- CONNECTICUT CITY SKY/WX TMP DP RH WIND PRES REMARKS BRADLEY INTL MOSUNNY 70 65 84 NE3 29.95R 6HR MIN TEMP: 62; 6HR MAX TEMP: 70; HARTFORD SUNNY 73 65 75 N8 29.94S BRIDGEPORT SUNNY 73 66 78 N6 29.94S DANBURY SUNNY 71 65 81 CALM 29.98R GROTON SUNNY 73 68 84 NW8 29.92S NEW HAVEN SUNNY 73 67 81 N6 29.94S CHESTER NOT AVBL MERIDEN SUNNY 72 66 81 N3 29.94F WILLIMANTIC MOSUNNY 69 68 96 CALM 29.94S OXFORD SUNNY 69 65 86 NW6 29.97S $$ MEZ002-015-021-024-NHZ003-005-008-011-012-014-VTZ005-008-161300- NORTHERN NEW ENGLAND CITY SKY/WX TMP DP RH WIND PRES REMARKS PORTLAND ME MOSUNNY 70 63 78 NW6 29.91R 6HR MIN TEMP: 65; 6HR MAX TEMP: 70; BANGOR ME MOSUNNY 68 63 84 NW3 29.87R CONCORD NH SUNNY 69 62 78 NW5 29.93S MANCHESTER NH MOSUNNY 69 61 75 NW8 29.91S NASHUA NH MOSUNNY 69 66 90 NW6 29.93R PORTSMOUTH NH MOSUNNY 71 61 70 NW13 29.89S JAFFREY NH PTSUNNY 67 66 97 CALM 29.96S KEENE NH N/A N/A N/A N/A MISG N/A BURLINGTON VT PTSUNNY 63 57 81 N8 30.00R MT. WASHINGTON DRZL/FOG 45 45 100 NW52G58 N/A VSB 0 $$ NYZ052-076-161300- EASTERN NEW YORK CITY SKY/WX TMP DP RH WIND PRES REMARKS ALBANY MOSUNNY 68 63 84 N3 29.98R 6HR MIN TEMP: 61; 6HR MAX TEMP: 68; NEW YORK CITY MOSUNNY 73 68 84 NW8 29.95R 6HR MIN TEMP: 71; 6HR MAX TEMP: 73; $$ ANZALL-161300- MARINE OBSERVATIONS STATION/POSITION TIME TEMP WIND PRES VSBY WAVE AIR SEA DIR/SP/G HT/PER (UTC) (F) (DEG/KT/KT) (MB) (MI) (FT/S) BOSTON BUOY 1150 67 67 260/ 10/ 10 1012.4R 1/13 BUZZARDS BAY 1100 69 300/ 11/ 12 1013.0R NANTUCKET SOUND 1050 70 71 310/ 10/ 14 1012.0 1/ 3 MASS BAY-STELLWA 1104 67 67 250/ 10/ 12 1011.5R 1/ 3 ISLE OF SHOALS 1100 66 280/ 11/ 11 1011.9R S OF BLOCK IS 1143 68 N/A 7/13 $$ ......................KEY......................... SKY/WX - SKY CONDITION/PRESENT WEATHER TMP - TEMPERATURE IN FAHRENHEIT DWPT - DEWPOINT IN FAHRENHEIT RH - RELATIVE HUMIDITY IN PERCENT WIND - DIRECTION AND SPEED IN MPH PRES - MEAN SEA LEVEL PRESSURE IN INCHES OF HG WCI - WIND CHILL INDEX VSB - VISIBILITY IN MILES HX - HEAT INDEX TC - TEMPERATURE IN CELSIUS VRB - VARIABLE WIND DIRECTION N/A - NOT AVAILABLE

USA.gov is the U.S. government's official web portal to all federal, state and local government web resources and services.